カタログに戻る

SL-8 R/B

運用中LEO
NORAD 11751·ROCKET BODY·🇷🇺 Russia

打ち上げ Apr 3, 1980 から Plesetsk Cosmodrome

Loading…

次のパス (今後24時間)

TLE

最新Source: Space-Track

元期: Sep 13, 2026, 22:16 UTC

1 11751U 80026B   26256.92832700  .00000010  00000-0  91438-4 0  9993
2 11751  65.8406  52.3341 0020675 276.2511 253.5626 13.77360332334462

AllMySatでSL-8 R/Bをリアルタイム追跡

Download on the App Store